N0OQA Weather Reports


time (UTC)temp
F
wind
direction
speed
knots
gust
knots
rain 1hr
in
rain 24hr
in
rain mn
in
humidity
%
barometer
mb
20230127232558 16 302 11.3 17.4 0.00 0.00 0.00 71 1011.8
20230127232058 16 328 11.3 15.6 0.00 0.00 0.00 71 1011.7
20230127231558 16 288 10.4 14.8 0.00 0.00 0.00 71 1011.5
20230127231057 16 276 10.4 14.8 0.00 0.00 0.00 70 1011.4
20230127230557 16 285 9.6 13.0 0.00 0.00 0.00 70 1011.1
20230127230057 16 290 11.3 18.2 0.00 0.00 0.00 70 1011.0
20230127225557 17 319 10.4 14.8 0.00 0.00 0.00 70 1010.6
20230127225055 17 304 11.3 17.4 0.00 0.00 0.00 70 1010.5
20230127224555 17 300 9.6 13.0 0.00 0.00 0.00 70 1010.4
20230127224055 17 294 11.3 13.9 0.00 0.00 0.00 70 1010.3
20230127223554 17 322 10.4 16.5 0.00 0.00 0.00 69 1010.3
20230127223054 18 281 12.2 16.5 0.00 0.00 0.00 69 1010.1
20230127222554 18 298 10.4 14.8 0.00 0.00 0.00 68 1008.9
20230127221053 18 277 11.3 14.8 0.00 0.00 0.00 69 1009.8
20230127220551 18 291 11.3 17.4 0.00 0.00 0.00 69 1009.7
20230127220051 19 314 10.4 15.6 0.00 0.00 0.00 68 1009.3
20230127215551 19 326 13.0 15.6 0.00 0.00 0.00 68 1009.2
20230127215050 19 318 13.9 18.2 0.00 0.00 0.00 67 1009.0
20230127214550 19 318 15.6 26.1 0.00 0.00 0.00 67 1009.0
20230127214050 19 280 14.8 21.7 0.00 0.00 0.00 67 1008.9
20230127213549 20 315 13.9 20.9 0.00 0.00 0.00 66 1008.8
20230127212549 20 322 11.3 14.8 0.00 0.00 0.00 68 1008.7
20230127211549 20 285 15.6 23.5 0.00 0.00 0.00 68 1008.6
20230127205546 19 312 13.9 21.7 0.00 0.00 0.00 68 1008.2
20230127204545 19 322 18.2 23.5 0.00 0.00 0.00 69 1008.1
20230127204044 19 311 17.4 22.6 0.00 0.00 0.00 69 1007.8
20230127203540 19 316 17.4 25.2 0.00 0.00 0.00 68 1008.0
20230127203041 19 290 13.9 18.2 0.00 0.00 0.00 69 1007.6
20230127201539 19 322 17.4 27.8 0.00 0.00 0.00 70 1007.5
20230127201039 20 325 17.4 25.2 0.00 0.00 0.00 70 1007.5
20230127200537 20 284 14.8 21.7 0.00 0.00 0.00 72 1007.4
20230127200038 19 245 14.8 21.7 0.00 0.00 0.00 72 1007.3
20230127195537 19 295 14.8 21.7 0.00 0.00 0.00 73 1007.2
20230127195038 19 295 18.2 26.9 0.00 0.00 0.00 72 1007.2
20230127194537 20 304 14.8 22.6 0.00 0.00 0.00 73 1007.0
20230127194036 19 315 17.4 27.8 0.00 0.00 0.00 74 1006.9
20230127193536 19 293 18.2 26.9 0.00 0.00 0.00 74 1006.9
20230127193035 20 293 19.1 25.2 0.00 0.00 0.00 74 1006.9
20230127192535 20 269 16.5 22.6 0.00 0.00 0.00 73 1006.8
20230127192035 20 304 13.0 20.0 0.00 0.00 0.00 75 1006.6
20230127191535 20 322 16.5 26.1 0.00 0.00 0.00 75 1006.5
20230127191033 20 287 17.4 26.1 0.00 0.00 0.00 75 1006.6
20230127190533 20 298 17.4 24.3 0.00 0.00 0.00 75 1006.5
20230127190033 20 294 14.8 26.1 0.00 0.00 0.00 75 1006.5
20230127185532 20 309 18.2 23.5 0.00 0.00 0.00 76 1006.5
20230127185032 20 291 16.5 22.6 0.00 0.00 0.00 76 1006.4
20230127184532 20 321 16.5 24.3 0.00 0.00 0.00 76 1006.3
20230127184031 20 315 18.2 26.9 0.00 0.00 0.00 75 1006.3
20230127183531 20 309 13.9 20.0 0.00 0.00 0.00 77 1006.2
20230127183030 20 236 14.8 20.9 0.00 0.00 0.00 77 1006.1
20230127182530 20 266 17.4 25.2 0.00 0.00 0.00 77 1004.0
20230127182029 20 283 14.8 22.6 0.00 0.00 0.00 77 1005.8
20230127181529 20 312 18.2 21.7 0.00 0.00 0.00 78 1005.8
20230127181028 20 294 13.9 20.9 0.00 0.00 0.00 78 1005.8
20230127180528 20 297 13.9 22.6 0.00 0.00 0.00 78 1005.7
20230127180028 20 290 18.2 21.7 0.00 0.00 0.00 78 1005.7
20230127175527 20 267 16.5 23.5 0.00 0.00 0.00 78 1005.7
20230127175027 21 297 16.5 23.5 0.00 0.00 0.00 78 1005.4
20230127174527 20 309 16.5 25.2 0.00 0.00 0.00 79 1005.3
20230127174026 21 285 16.5 24.3 0.00 0.00 0.00 79 1005.3
20230127173526 21 322 15.6 21.7 0.00 0.00 0.00 79 1005.1
20230127173027 21 288 14.8 20.9 0.00 0.00 0.00 80 1005.0
20230127172524 21 308 13.9 19.1 0.00 0.00 0.00 79 1004.9
20230127172022 21 291 14.8 21.7 0.00 0.00 0.00 79 1005.0
20230127171620 21 294 16.5 24.3 0.00 0.00 0.00 80 1004.8
20230127171522 21 294 16.5 24.3 0.00 0.00 0.00 80 1004.8
20230127170522 21 314 15.6 26.1 0.00 0.00 0.00 81 1004.7
20230127170020 21 321 17.4 26.1 0.00 0.00 0.00 82 1004.7
20230127165520 21 300 14.8 23.5 0.00 0.00 0.00 82 1004.7
20230127165020 21 314 14.8 23.5 0.00 0.00 0.00 83 1004.5
20230127163518 22 290 16.5 23.5 0.00 0.00 0.00 85 1004.0
20230127162517 21 294 17.4 24.3 0.00 0.00 0.00 83 1003.0
20230127161016 22 294 14.8 21.7 0.00 0.00 0.00 86 1003.3
20230127160516 22 287 13.9 20.0 0.00 0.00 0.00 87 1003.3
20230127160015 22 291 18.2 26.9 0.00 0.00 0.00 86 1003.2
20230127155515 23 284 16.5 20.9 0.00 0.00 0.00 86 1002.9
20230127155015 23 287 17.4 27.8 0.00 0.00 0.00 86 1003.0
20230127154514 23 298 16.5 20.9 0.00 0.00 0.00 87 1002.7
20230127154014 23 288 19.1 30.4 0.00 0.00 0.00 87 1002.5
20230127153514 24 293 17.4 26.1 0.00 0.00 0.00 87 1002.2
20230127152513 24 270 13.9 18.2 0.00 0.00 0.00 87 1001.9
20230127152013 25 322 15.6 23.5 0.00 0.00 0.00 87 1001.7
20230127151513 25 284 15.6 22.6 0.00 0.00 0.00 88 1001.5
20230127151013 25 280 13.0 21.7 0.00 0.00 0.00 88 1001.3
20230127150512 25 304 13.9 20.0 0.00 0.00 0.00 90 1001.1
20230127150012 25 304 14.8 24.3 0.00 0.00 0.00 89 1000.9
20230127145512 26 302 13.0 20.0 0.00 0.00 0.00 89 1000.8
20230127145011 26 284 17.4 26.1 0.00 0.00 0.00 88 1000.7
20230127144511 26 285 15.6 21.7 0.00 0.00 0.00 88 1000.5
20230127144010 27 314 16.5 25.2 0.00 0.00 0.00 90 1000.3
20230127143511 27 255 17.4 26.9 0.00 0.00 0.00 91 1000.2
20230127142509 28 294 12.2 17.4 0.00 0.00 0.00 92 999.5
20230127142009 28 326 13.9 20.9 0.00 0.00 0.00 92 999.4
20230127141509 28 319 12.2 22.6 0.00 0.00 0.00 93 999.3
20230127141008 29 294 12.2 18.2 0.00 0.00 0.00 94 999.1
20230127140507 29 294 18.2 26.1 0.00 0.00 0.00 93 999.0
20230127140007 30 273 18.2 26.9 0.00 0.00 0.00 93 998.9
20230127134507 31 308 14.8 20.0 0.00 0.00 0.00 95 998.0
20230127134006 32 294 14.8 20.0 0.00 0.00 0.00 96 997.9
20230127133006 32 287 10.4 13.9 0.00 0.00 0.00 99 997.5
20230127132502 32 311 16.5 21.7 0.00 0.00 0.00 99 997.4
20230127132002 32 319 15.6 23.5 0.00 0.00 0.00 100 997.3
20230127131502 32 308 12.2 18.2 0.00 0.00 0.00 100 997.2
20230127131001 32 291 8.7 13.0 0.00 0.00 0.00 100 997.2
20230127130501 32 295 7.8 9.6 0.00 0.00 0.00 100 997.1
20230127130001 32 311 11.3 16.5 0.00 0.00 0.00 100 997.0
20230127125500 32 314 13.0 15.6 0.00 0.00 0.00 100 997.0
20230127125000 32 322 13.0 26.1 0.00 0.00 0.00 100 996.8
20230127124500 31 263 3.5 5.2 0.00 0.00 0.00 100 996.6
20230127123959 31 287 3.5 4.3 0.00 0.00 0.00 100 996.4
20230127123459 31 321 4.3 5.2 0.00 0.00 0.00 100 996.2
20230127122458 30 218 5.2 7.0 0.00 0.00 0.00 100 994.9
20230127121957 30 232 5.2 8.7 0.00 0.00 0.00 100 995.9
20230127121457 30 210 4.3 6.1 0.00 0.00 0.00 100 995.9
20230127120957 29 259 3.5 5.2 0.00 0.00 0.00 100 995.8
20230127120456 29 212 4.3 5.2 0.00 0.00 0.00 100 995.8
20230127115956 29 225 3.5 5.2 0.00 0.00 0.00 100 995.9
20230127115455 29 215 4.3 5.2 0.00 0.00 0.00 100 995.9
20230127114955 29 217 4.3 5.2 0.00 0.00 0.00 100 995.9
20230127114454 28 183 4.3 4.3 0.00 0.00 0.00 100 995.8
20230127113953 28 222 5.2 7.0 0.00 0.00 0.00 100 995.9
20230127113455 28 221 6.1 8.7 0.00 0.00 0.00 100 995.8
20230127112954 27 200 6.1 8.7 0.00 0.00 0.00 100 995.8
20230127112453 27 146 5.2 7.0 0.00 0.00 0.00 100 995.7
20230127111952 27 183 4.3 5.2 0.00 0.00 0.00 100 995.8
20230127111453 27 233 3.5 5.2 0.00 0.00 0.00 100 995.8
20230127110951 27 194 4.3 5.2 0.00 0.00 0.00 100 995.9
20230127105449 26 155 4.3 6.1 0.00 0.00 0.00 100 996.1
20230127104949 26 225 6.1 8.7 0.00 0.00 0.00 100 996.1
20230127104449 26 149 6.1 8.7 0.00 0.00 0.00 100 996.1
20230127103949 25 159 5.2 7.8 0.00 0.00 0.00 100 996.0
20230127103448 25 204 6.1 7.8 0.00 0.00 0.00 100 996.1
20230127102947 25 146 4.3 6.1 0.00 0.00 0.00 100 996.1
20230127102447 25 190 4.3 5.2 0.00 0.00 0.05 98 994.8
20230127101946 25 177 5.2 6.1 0.00 0.00 0.05 100 996.2
20230127101446 24 229 4.3 6.1 0.00 0.00 0.05 100 996.3
20230127100946 24 191 5.2 7.8 0.00 0.00 0.05 100 996.2
20230127100446 24 169 6.1 7.0 0.00 0.00 0.05 100 996.4
20230127095945 24 208 6.1 7.8 0.00 0.00 0.05 100 996.6
20230127095445 24 122 6.1 7.8 0.00 0.00 0.05 100 996.5
20230127094945 24 169 5.2 7.8 0.00 0.00 0.04 100 996.6
20230127094445 23 208 5.2 7.8 0.00 0.00 0.04 100
20230127093944 23 208 5.2 7.8 0.00 0.00 0.03 100 996.8
20230127093444 23 152 6.1 9.6 0.00 0.00 0.02 100 997.1
20230127092944 23 186 5.2 8.7 0.00 0.00 0.02 100 997.2
20230127092443 23 167 6.1 9.6 0.00 0.00 0.02 100 997.3
20230127091943 23 172 6.1 7.0 0.00 0.00 0.02 99 997.3
20230127091443 23 174 6.1 8.7 0.00 0.00 0.02 99 997.4
20230127090943 22 180 6.1 9.6 0.00 0.00 0.02 99 997.5
20230127090442 22 225 6.1 7.8 0.00 0.00 0.02 99 997.6
20230127085942 22 186 7.0 9.6 0.00 0.00 0.02 99 997.7
20230127085442 22 146 7.0 9.6 0.00 0.00 0.02 99 997.8
20230127084942 22 207 6.1 10.4 0.00 0.00 0.02 99 997.9
20230127084440 22 177 6.1 7.8 0.00 0.00 0.02 99 998.0
20230127083939 22 201 6.1 7.0 0.00 0.00 0.02 99 998.1
20230127083439 22 181 6.1 8.7 0.00 0.00 0.02 99 998.2
20230127082939 22 183 7.0 13.0 0.00 0.00 0.02 99 998.4
20230127082438 21 198 7.8 13.0 0.00 0.00 0.02 100 996.1
20230127081438 21 197 7.0 9.6 0.00 0.00 0.02 100 998.7
20230127080437 20 152 6.1 8.7 0.00 0.00 0.02 99 998.9
20230127075937 20 170 6.1 8.7 0.00 0.00 0.02 99 999.0
20230127075437 20 139 6.1 8.7 0.00 0.00 0.02 99 999.0
20230127074936 20 167 7.8 10.4 0.00 0.00 0.02 98 999.1
20230127074436 20 173 7.0 11.3 0.00 0.00 0.02 98 999.3
20230127074108 19 141 7.0 12.2 0.00 0.00 0.02 98 999.5
20230127073935 19 141 7.0 12.2 0.00 0.00 0.02 98 999.5
20230127073435 19 131 7.0 12.2 0.00 0.00 0.02 98 999.7
20230127072935 19 179 7.8 12.2 0.00 0.00 0.02 98 999.9
20230127071934 19 159 6.1 8.7 0.00 0.00 0.02 98 1000.2
20230127071433 18 172 7.0 8.7 0.00 0.00 0.02 98 1000.4
20230127070935 18 183 7.8 11.3 0.00 0.00 0.02 98 1000.5
20230127070432 18 156 7.0 10.4 0.00 0.00 0.02 98 1000.5
20230127065930 18 184 7.8 10.4 0.00 0.00 0.02 98 1000.6
20230127065430 18 152 7.8 10.4 0.00 0.00 0.02 98 1000.7
20230127064929 18 170 6.1 7.8 0.00 0.00 0.02 98 1000.8
20230127064429 17 135 7.0 8.7 0.00 0.00 0.02 98 1001.0
20230127063428 17 155 6.1 9.6 0.00 0.00 0.01 97 1001.4
20230127062926 17 131 7.0 10.4 0.00 0.00 0.01 97 1001.7
20230127062426 17 179 6.1 8.7 0.00 0.00 0.01 97 1001.4
20230127061926 17 186 7.0 9.6 0.00 0.00 0.01 97 1002.0
20230127061426 17 184 7.8 11.3 0.00 0.00 0.01 97 1002.2
20230127060925 17 172 8.7 13.0 0.00 0.00 0.01 97 1002.5
20230127060424 17 163 7.8 9.6 0.00 0.00 0.01 97 1002.6
20230127055923 16 191 7.0 10.4 0.00 0.00 0.01 96 1002.8
20230127055423 16 211 7.8 11.3 0.00 0.00 0.01 96 1002.9
20230127054422 16 174 8.7 13.0 0.00 0.00 0.00 95 1003.2
20230127053923 16 174 7.0 11.3 0.00 0.00 0.00 95 1003.2
20230127053422 16 159 8.7 17.4 0.00 0.00 0.00 95 1003.5
20230127052922 16 177 6.1 8.7 0.00 0.00 0.00 94 1003.7
20230127052421 16 150 7.0 12.2 0.00 0.00 0.00 94 1003.9
20230127051921 16 150 8.7 11.3 0.00 0.00 0.00 94 1003.9
20230127051421 15 174 7.0 11.3 0.00 0.00 0.00 93 1004.1
20230127050917 15 160 7.8 13.0 0.00 0.00 0.00 93 1004.3
20230127050418 15 136 9.6 14.8 0.00 0.00 0.00 93 1004.4
20230127045917 15 120 7.8 12.2 0.00 0.00 0.00 93 1004.6
20230127045417 15 122 7.8 11.3 0.00 0.00 0.00 92 1004.7
20230127044915 15 117 8.7 15.6 0.00 0.00 0.00 92 1004.8
20230127044416 15 158 7.8 13.0 0.00 0.00 0.00 92 1004.9
20230127043915 15 184 7.8 13.0 0.00 0.00 0.00 92 1005.3
20230127043415 14 181 8.7 11.3 0.00 0.00 0.00 92 1005.4
20230127042914 14 136 8.7 15.6 0.00 0.00 0.00 92 1005.7
20230127042414 14 111 7.8 10.4 0.00 0.00 0.00 90 1005.9
20230127041914 14 191 7.0 10.4 0.00 0.00 0.00 91 1006.2
20230127041413 14 165 7.0 12.2 0.00 0.00 0.00 91 1006.6
20230127040913 14 145 7.0 12.2 0.00 0.00 0.00 91 1006.8
20230127040413 14 162 6.1 8.7 0.00 0.00 0.00 91 1007.1
20230127035912 14 148 7.0 12.2 0.00 0.00 0.00 91 1007.2
20230127035412 14 148 6.1 8.7 0.00 0.00 0.00 91 1007.3
20230127034911 14 163 4.3 8.7 0.00 0.00 0.00 91 1007.4
20230127034411 14 179 6.1 8.7 0.00 0.00 0.00 91 1007.3
20230127033911 13 183 7.8 12.2 0.00 0.00 0.00 92 1007.5
20230127033411 14 173 6.1 9.6 0.00 0.00 0.00 92 1007.6
20230127032910 13 159 7.8 10.4 0.00 0.00 0.00 92 1007.6
20230127032409 13 142 7.0 10.4 0.00 0.00 0.00 92 1007.7
20230127031908 13 143 8.7 9.6 0.00 0.00 0.00 92 1008.1
20230127031407 13 183 8.7 10.4 0.00 0.00 0.00 92 1008.4
20230127030907 13 62 7.0 9.6 0.00 0.00 0.00 92 1008.7
20230127030407 13 188 7.8 10.4 0.00 0.00 0.00 92 1008.9
20230127025905 13 132 6.1 9.6 0.00 0.00 0.00 92 1009.0
20230127024904 13 167 7.0 9.6 0.00 0.00 0.00 92 1009.2
20230127024401 13 153 6.1 8.7 0.00 0.00 0.00 92 1009.3
20230127023901 13 169 6.1 8.7 0.00 0.00 0.00 92 1009.3
20230127023400 13 156 6.1 7.0 0.00 0.00 0.00 92 1009.4
20230127022900 13 191 6.1 12.2 0.00 0.00 0.00 92 1009.5
20230127022359 13 146 6.1 8.7 0.00 0.00 0.00 91 1009.4
20230127021859 13 135 6.1 10.4 0.00 0.00 0.00 92 1009.5
20230127020900 13 139 7.0 10.4 0.00 0.00 0.00 92 1010.0
20230127020355 13 211 6.1 8.7 0.00 0.00 0.00 92 1010.3
20230127015856 13 187 5.2 7.0 0.00 0.00 0.00 92 1010.5
20230127015355 13 145 6.1 10.4 0.00 0.00 0.00 91 1010.5
20230127014854 13 162 7.0 12.2 0.00 0.00 0.00 91 1010.6
20230127014354 13 166 7.0 8.7 0.00 0.00 0.00 91 1010.8
20230127013854 13 160 6.1 7.0 0.00 0.00 0.00 91 1010.9
20230127013353 13 155 6.1 7.8 0.00 0.00 0.00 91 1011.0
20230127012853 13 194 7.0 9.6 0.00 0.00 0.00 90 1011.1
20230127012353 13 120 6.1 7.8 0.00 0.00 0.00 90 1011.3
20230127011853 13 195 6.1 7.8 0.00 0.00 0.00 90 1011.5
20230127010351 13 158 7.8 13.9 0.00 0.00 0.00 88 1012.3
20230127005852 13 180 7.0 8.7 0.00 0.00 0.00 88 1012.4
20230127005349 13 211 4.3 6.1 0.00 0.00 0.00 88 1012.6
20230127004348 13 225 5.2 7.0 0.00 0.00 0.00 87 1013.0
20230127003849 13 211 4.3 5.2 0.00 0.00 0.00 87 1013.0
20230127003347 13 174 6.1 8.7 0.00 0.00 0.00 87 1012.8
20230127002847 13 179 5.2 8.7 0.00 0.00 0.00 87 1012.9
20230127002347 13 177 4.3 6.1 0.00 0.00 0.00 85 1012.1
20230127001846 13 173 4.3 5.2 0.00 0.00 0.00 87 1013.0
20230127000846 13 184 3.5 5.2 0.00 0.00 0.00 86 1013.2
20230127000346 13 208 3.5 5.2 0.00 0.00 0.00 86 1013.2
20230126235845 13 215 4.3 5.2 0.00 0.00 0.00 86 1013.2
20230126235345 13 203 3.5 5.2 0.00 0.00 0.00 86 1013.2
20230126234846 13 184 3.5 4.3 0.00 0.00 0.00 85 1013.2
20230126234344 13 167 5.2 6.1 0.00 0.00 0.00 85 1013.1
20230126233844 13 184 4.3 5.2 0.00 0.00 0.00 85 1013.1
20230126233344 13 179 5.2 7.0 0.00 0.00 0.00 85 1013.1